Weather WX

World > North America > United States > Ohio

Glencoe, Ohio Regional Weather

Lat: 40.01N, Lon: 80.89W
Wx Zone: OHZ059
Warning FLW WEATHER ALERT - (More Info. Click Here) Warning
Feedback

Glencoe, OH Regional Weather

Expires:201906241800;;010000
ASUS41 KCLE 241712
RWRCLE
OHIO REGIONAL WEATHER ROUNDUP
NATIONAL WEATHER SERVICE WILMINGTON, OH
100 PM EDT MON JUN 24 2019

NOTE: "FAIR" INDICATES FEW OR NO CLOUDS BELOW 12,000 FEET WITH NO
SIGNIFICANT WEATHER AND/OR OBSTRUCTIONS TO VISIBILITY.


OHZ036-037-039>041-045>050-054>059-063>069-073>076-082>088-241800-
  CENTRAL AND SOUTHEAST OHIO
  
CITY           SKY/WX    TMP DP  RH WIND       PRES   REMARKS
COLUMBUS       PTSUNNY   81  68  64 S12       29.79F                  
OSU AIRPORT    FAIR      81  68  64 S14G21    29.78F                  
BOLTON FIELD   MOSUNNY   81  70  69 SW15G22   29.81F                  
RICKENBACK AFB FAIR      81  68  64 SW10G17   29.79F                  
NEWARK         FAIR      82  69  64 S12       29.80F                  
MARION         FAIR      81  65  58 SW15      29.79F                  
LANCASTER      FAIR      82  68  62 SW13      29.80F                  
ZANESVILLE     PTSUNNY   79  69  71 S9        29.82F                  
NEW PHILLY     FAIR      79  67  66 S10G17    29.83F                  
$$
  

SKY/WX - Weather  TMP - Temperature  DP - Dew Point  RH - Relative Humidity
WIND - Wind Direction/Speed PRES - Barometric Pressure VSB - Visibility
WCI - Wind Chill Index E13G22 Wind - East Wind 13 mph/Gusts of 22 mph